Time,TemperatureF,DewpointF,PressureIn,WindDirection,WindDirectionDegrees,WindSpeedMPH,WindSpeedGustMPH,Humidity,HourlyPrecipIn,Conditions,Clouds,dailyrainin,SoftwareType,DateUTC
2013-03-14 00:01:00,50.2,49.1,0.00,North,0,0.0,0.0,96,0.00,,,-99.99,pyweather 0.1,2013-03-14 07:01:00,
2013-03-14 00:09:00,50.2,49.1,0.00,North,0,0.0,0.0,96,0.00,,,-99.99,pyweather 0.1,2013-03-14 07:09:00,
2013-03-14 00:17:00,50.0,48.9,0.00,North,0,0.0,0.0,96,0.00,,,-99.99,pyweather 0.1,2013-03-14 07:17:00,
2013-03-14 00:25:00,50.2,49.1,0.00,North,0,0.0,0.0,96,0.00,,,-99.99,pyweather 0.1,2013-03-14 07:25:00,
2013-03-14 00:33:00,50.2,49.1,0.00,North,0,0.0,0.0,96,0.00,,,-99.99,pyweather 0.1,2013-03-14 07:33:00,
2013-03-14 00:41:00,50.2,49.1,0.00,North,0,0.0,0.0,96,0.00,,,-99.99,pyweather 0.1,2013-03-14 07:41:00,
2013-03-14 00:49:00,50.2,49.1,0.00,North,0,0.0,0.0,96,0.00,,,-99.99,pyweather 0.1,2013-03-14 07:49:00,
2013-03-14 00:57:00,50.2,49.1,0.00,North,0,0.0,0.0,96,0.00,,,-99.99,pyweather 0.1,2013-03-14 07:57:00,
2013-03-14 01:05:00,50.2,49.1,0.00,North,0,0.0,0.0,96,0.00,,,-99.99,pyweather 0.1,2013-03-14 08:05:00,
2013-03-14 01:13:00,50.2,49.1,0.00,North,0,0.0,0.0,96,0.00,,,-99.99,pyweather 0.1,2013-03-14 08:13:00,
2013-03-14 01:21:00,50.2,49.4,0.00,North,0,0.0,0.0,97,0.00,,,-99.99,pyweather 0.1,2013-03-14 08:21:00,
2013-03-14 01:29:00,50.2,49.4,0.00,North,0,0.0,0.0,97,0.00,,,-99.99,pyweather 0.1,2013-03-14 08:29:00,
2013-03-14 01:37:00,50.2,49.4,0.00,North,0,0.0,0.0,97,0.00,,,-99.99,pyweather 0.1,2013-03-14 08:37:00,
2013-03-14 01:45:00,50.2,49.4,0.00,North,0,0.0,0.0,97,0.00,,,-99.99,pyweather 0.1,2013-03-14 08:45:00,
2013-03-14 01:53:00,50.2,49.4,0.00,North,0,0.0,0.0,97,0.00,,,-99.99,pyweather 0.1,2013-03-14 08:53:00,
2013-03-14 02:01:00,50.2,49.4,0.00,North,0,0.0,0.0,97,0.00,,,-99.99,pyweather 0.1,2013-03-14 09:01:00,
2013-03-14 02:09:00,50.2,49.4,0.00,North,0,0.0,0.0,97,0.00,,,-99.99,pyweather 0.1,2013-03-14 09:09:00,
2013-03-14 02:17:00,50.2,49.4,0.00,North,0,0.0,0.0,97,0.00,,,-99.99,pyweather 0.1,2013-03-14 09:17:00,
2013-03-14 02:25:00,50.0,49.2,0.00,North,0,0.0,0.0,97,0.00,,,-99.99,pyweather 0.1,2013-03-14 09:25:00,
2013-03-14 02:33:00,50.0,49.2,0.00,North,0,0.0,0.0,97,0.00,,,-99.99,pyweather 0.1,2013-03-14 09:33:00,
2013-03-14 02:41:00,49.8,49.0,0.00,North,0,0.0,0.0,97,0.00,,,-99.99,pyweather 0.1,2013-03-14 09:41:00,
2013-03-14 02:49:00,49.8,49.0,0.00,North,0,0.0,0.0,97,0.00,,,-99.99,pyweather 0.1,2013-03-14 09:49:00,
2013-03-14 02:57:00,49.6,48.8,0.00,North,0,0.0,0.0,97,0.00,,,-99.99,pyweather 0.1,2013-03-14 09:57:00,
2013-03-14 03:05:00,49.6,48.8,0.00,North,0,0.0,0.0,97,0.00,,,-99.99,pyweather 0.1,2013-03-14 10:05:00,
2013-03-14 03:13:00,49.5,48.9,0.00,North,0,0.0,0.0,98,0.00,,,-99.99,pyweather 0.1,2013-03-14 10:13:00,
2013-03-14 03:21:00,49.5,48.9,0.00,North,0,0.0,0.0,98,0.00,,,-99.99,pyweather 0.1,2013-03-14 10:21:00,
2013-03-14 03:29:00,49.5,48.9,0.00,North,0,0.0,0.0,98,0.00,,,-99.99,pyweather 0.1,2013-03-14 10:29:00,
2013-03-14 03:37:00,49.5,48.9,0.00,North,0,0.0,0.0,98,0.00,,,-99.99,pyweather 0.1,2013-03-14 10:37:00,
2013-03-14 03:45:00,49.3,48.7,0.00,North,0,0.0,0.0,98,0.00,,,-99.99,pyweather 0.1,2013-03-14 10:45:00,
2013-03-14 03:53:00,49.3,48.7,0.00,North,0,0.0,0.0,98,0.00,,,-99.99,pyweather 0.1,2013-03-14 10:53:00,
2013-03-14 04:01:00,49.5,48.9,0.00,North,0,0.0,0.0,98,0.00,,,-99.99,pyweather 0.1,2013-03-14 11:01:00,
2013-03-14 04:09:00,49.3,48.7,0.00,North,0,0.0,0.0,98,0.00,,,-99.99,pyweather 0.1,2013-03-14 11:09:00,
2013-03-14 04:17:00,49.3,48.7,0.00,North,0,0.0,0.0,98,0.00,,,-99.99,pyweather 0.1,2013-03-14 11:17:00,
2013-03-14 04:25:00,49.3,48.7,0.00,North,0,0.0,0.0,98,0.00,,,-99.99,pyweather 0.1,2013-03-14 11:25:00,
2013-03-14 04:33:00,49.3,48.7,0.00,North,0,0.0,0.0,98,0.00,,,-99.99,pyweather 0.1,2013-03-14 11:33:00,
2013-03-14 04:41:00,49.3,48.7,0.00,North,0,0.0,0.0,98,0.00,,,-99.99,pyweather 0.1,2013-03-14 11:41:00,
2013-03-14 04:49:00,49.3,48.7,0.00,North,0,0.0,0.0,98,0.00,,,-99.99,pyweather 0.1,2013-03-14 11:49:00,
2013-03-14 04:57:00,49.1,48.6,0.00,North,0,0.0,0.0,98,0.00,,,-99.99,pyweather 0.1,2013-03-14 11:57:00,
2013-03-14 05:05:00,49.1,48.6,0.00,North,0,0.0,0.0,98,0.00,,,-99.99,pyweather 0.1,2013-03-14 12:05:00,
2013-03-14 05:13:00,49.1,48.6,0.00,North,0,0.0,0.0,98,0.00,,,-99.99,pyweather 0.1,2013-03-14 12:13:00,
2013-03-14 05:22:00,48.9,48.4,0.00,North,0,0.0,0.0,98,0.00,,,-99.99,pyweather 0.1,2013-03-14 12:22:00,
2013-03-14 05:30:00,48.9,48.4,0.00,North,0,0.0,0.0,98,0.00,,,-99.99,pyweather 0.1,2013-03-14 12:30:00,
2013-03-14 05:38:00,48.7,48.2,0.00,North,0,0.0,0.0,98,0.00,,,-99.99,pyweather 0.1,2013-03-14 12:38:00,
2013-03-14 05:46:00,48.9,48.4,0.00,North,0,0.0,0.0,98,0.00,,,-99.99,pyweather 0.1,2013-03-14 12:46:00,
2013-03-14 05:54:00,48.9,48.4,0.00,North,0,0.0,0.0,98,0.00,,,-99.99,pyweather 0.1,2013-03-14 12:54:00,
2013-03-14 06:02:00,48.9,48.4,0.00,North,0,0.0,0.0,98,0.00,,,-99.99,pyweather 0.1,2013-03-14 13:02:00,
2013-03-14 06:10:00,48.9,48.4,0.00,North,0,0.0,0.0,98,0.00,,,-99.99,pyweather 0.1,2013-03-14 13:10:00,
2013-03-14 06:18:00,48.9,48.4,0.00,North,0,0.0,0.0,98,0.00,,,-99.99,pyweather 0.1,2013-03-14 13:18:00,
2013-03-14 06:26:00,48.7,48.2,0.00,North,0,0.0,0.0,98,0.00,,,-99.99,pyweather 0.1,2013-03-14 13:26:00,
2013-03-14 06:34:00,48.7,48.2,0.00,North,0,0.0,0.0,98,0.00,,,-99.99,pyweather 0.1,2013-03-14 13:34:00,
2013-03-14 06:42:00,48.7,48.2,0.00,North,0,0.0,0.0,98,0.00,,,-99.99,pyweather 0.1,2013-03-14 13:42:00,
2013-03-14 06:50:00,48.7,48.2,0.00,North,0,0.0,0.0,98,0.00,,,-99.99,pyweather 0.1,2013-03-14 13:50:00,
2013-03-14 06:58:00,48.7,48.2,0.00,North,0,0.0,0.0,98,0.00,,,-99.99,pyweather 0.1,2013-03-14 13:58:00,
2013-03-14 07:06:00,48.7,48.2,0.00,North,0,0.0,0.0,98,0.00,,,-99.99,pyweather 0.1,2013-03-14 14:06:00,
2013-03-14 07:14:00,48.7,48.2,0.00,North,0,0.0,0.0,98,0.00,,,-99.99,pyweather 0.1,2013-03-14 14:14:00,
2013-03-14 07:22:00,48.6,48.0,0.00,North,0,0.0,0.0,98,0.00,,,-99.99,pyweather 0.1,2013-03-14 14:22:00,
2013-03-14 07:30:00,48.7,48.2,0.00,North,0,0.0,0.0,98,0.00,,,-99.99,pyweather 0.1,2013-03-14 14:30:00,
2013-03-14 07:38:00,48.7,48.2,0.00,North,0,0.0,0.0,98,0.00,,,-99.99,pyweather 0.1,2013-03-14 14:38:00,
2013-03-14 07:46:00,48.7,48.2,0.00,North,0,0.0,0.0,98,0.00,,,-99.99,pyweather 0.1,2013-03-14 14:46:00,
2013-03-14 07:54:00,48.7,48.2,0.00,North,0,0.0,0.0,98,0.00,,,-99.99,pyweather 0.1,2013-03-14 14:54:00,
2013-03-14 08:02:00,48.7,48.2,0.00,North,0,0.0,0.0,98,0.00,,,-99.99,pyweather 0.1,2013-03-14 15:02:00,
2013-03-14 08:10:00,48.9,48.4,0.00,North,0,0.0,0.0,98,0.00,,,-99.99,pyweather 0.1,2013-03-14 15:10:00,
2013-03-14 08:18:00,49.1,48.6,0.00,North,0,0.0,0.0,98,0.00,,,-99.99,pyweather 0.1,2013-03-14 15:18:00,
2013-03-14 08:26:00,49.3,48.7,0.00,North,0,0.0,0.0,98,0.00,,,-99.99,pyweather 0.1,2013-03-14 15:26:00,
2013-03-14 08:34:00,49.3,48.7,0.00,North,0,0.0,0.0,98,0.00,,,-99.99,pyweather 0.1,2013-03-14 15:34:00,
2013-03-14 08:42:00,49.5,48.9,0.00,North,0,0.0,0.0,98,0.00,,,-99.99,pyweather 0.1,2013-03-14 15:42:00,
2013-03-14 08:50:00,49.8,49.3,0.00,North,0,0.0,0.0,98,0.00,,,-99.99,pyweather 0.1,2013-03-14 15:50:00,
2013-03-14 08:58:00,50.0,49.5,0.00,North,0,0.0,0.0,98,0.00,,,-99.99,pyweather 0.1,2013-03-14 15:58:00,
2013-03-14 09:06:00,50.2,49.6,0.00,North,0,0.0,0.0,98,0.00,,,-99.99,pyweather 0.1,2013-03-14 16:06:00,
2013-03-14 09:14:00,50.4,49.8,0.00,North,0,0.0,0.0,98,0.00,,,-99.99,pyweather 0.1,2013-03-14 16:14:00,
2013-03-14 09:22:00,50.5,50.0,0.00,North,0,0.0,0.0,98,0.00,,,-99.99,pyweather 0.1,2013-03-14 16:22:00,
2013-03-14 09:30:00,50.9,50.4,0.00,North,0,0.0,0.0,98,0.00,,,-99.99,pyweather 0.1,2013-03-14 16:30:00,
2013-03-14 09:38:00,50.9,50.4,0.00,North,0,0.0,0.0,98,0.00,,,-99.99,pyweather 0.1,2013-03-14 16:38:00,
2013-03-14 09:47:00,50.9,50.4,0.00,North,0,0.0,0.0,98,0.00,,,-99.99,pyweather 0.1,2013-03-14 16:47:00,
2013-03-14 09:55:00,50.9,50.4,0.00,North,0,0.0,0.0,98,0.00,,,-99.99,pyweather 0.1,2013-03-14 16:55:00,
2013-03-14 10:03:00,51.1,50.5,0.00,North,0,0.0,0.0,98,0.00,,,-99.99,pyweather 0.1,2013-03-14 17:03:00,
2013-03-14 10:11:00,51.1,50.5,0.00,North,0,0.0,0.0,98,0.00,,,-99.99,pyweather 0.1,2013-03-14 17:11:00,
2013-03-14 10:19:00,51.1,50.5,0.00,North,0,0.0,0.0,98,0.00,,,-99.99,pyweather 0.1,2013-03-14 17:19:00,
2013-03-14 10:27:00,51.3,50.7,0.00,North,0,0.0,0.0,98,0.00,,,-99.99,pyweather 0.1,2013-03-14 17:27:00,
2013-03-14 10:35:00,51.3,50.7,0.00,North,0,0.0,0.0,98,0.00,,,-99.99,pyweather 0.1,2013-03-14 17:35:00,
2013-03-14 10:43:00,51.3,50.7,0.00,North,0,0.0,0.0,98,0.00,,,-99.99,pyweather 0.1,2013-03-14 17:43:00,
2013-03-14 10:51:00,51.1,50.5,0.00,North,0,0.0,0.0,98,0.00,,,-99.99,pyweather 0.1,2013-03-14 17:51:00,
2013-03-14 10:59:00,51.1,50.5,0.00,North,0,0.0,0.0,98,0.00,,,-99.99,pyweather 0.1,2013-03-14 17:59:00,
2013-03-14 11:07:00,50.9,50.1,0.00,North,0,0.0,0.0,97,0.00,,,-99.99,pyweather 0.1,2013-03-14 18:07:00,
2013-03-14 11:15:00,50.9,50.1,0.00,North,0,0.0,0.0,97,0.00,,,-99.99,pyweather 0.1,2013-03-14 18:15:00,
2013-03-14 11:23:00,50.9,49.8,0.00,North,0,0.0,0.0,96,0.00,,,-99.99,pyweather 0.1,2013-03-14 18:23:00,
2013-03-14 11:31:00,51.1,50.0,0.00,North,0,0.0,0.0,96,0.00,,,-99.99,pyweather 0.1,2013-03-14 18:31:00,
2013-03-14 11:39:00,51.1,50.0,0.00,North,0,0.0,0.0,96,0.00,,,-99.99,pyweather 0.1,2013-03-14 18:39:00,
2013-03-14 11:47:00,51.1,49.7,0.00,North,0,0.0,0.0,95,0.00,,,-99.99,pyweather 0.1,2013-03-14 18:47:00,
2013-03-14 11:55:00,51.1,49.7,0.00,North,0,0.0,0.0,95,0.00,,,-99.99,pyweather 0.1,2013-03-14 18:55:00,
2013-03-14 12:03:00,51.1,49.4,0.00,North,0,0.0,0.0,94,0.00,,,-99.99,pyweather 0.1,2013-03-14 19:03:00,
2013-03-14 12:19:00,51.1,48.8,0.00,North,0,0.0,0.0,92,0.00,,,-99.99,pyweather 0.1,2013-03-14 19:19:00,
2013-03-14 12:27:00,51.3,49.0,0.00,North,0,0.0,0.0,92,0.00,,,-99.99,pyweather 0.1,2013-03-14 19:27:00,
2013-03-14 12:35:00,51.4,48.9,0.00,North,0,0.0,0.0,91,0.00,,,-99.99,pyweather 0.1,2013-03-14 19:35:00,
2013-03-14 12:44:00,51.6,49.1,0.00,North,0,0.0,0.0,91,0.00,,,-99.99,pyweather 0.1,2013-03-14 19:44:00,
2013-03-14 12:52:00,51.8,49.0,0.00,North,0,0.0,0.0,90,0.00,,,-99.99,pyweather 0.1,2013-03-14 19:52:00,
2013-03-14 13:00:00,52.0,48.8,0.00,North,0,0.0,0.0,89,0.00,,,-99.99,pyweather 0.1,2013-03-14 20:00:00,
2013-03-14 13:08:00,52.2,48.1,0.00,North,0,0.0,0.0,86,0.00,,,-99.99,pyweather 0.1,2013-03-14 20:08:00,
2013-03-14 13:24:00,52.2,47.8,0.00,North,0,0.0,0.0,85,0.00,,,-99.99,pyweather 0.1,2013-03-14 20:24:00,
2013-03-14 13:32:00,52.3,48.0,0.00,North,0,0.0,0.0,85,0.00,,,-99.99,pyweather 0.1,2013-03-14 20:32:00,
2013-03-14 13:40:00,52.3,47.7,0.00,North,0,0.0,0.0,84,0.00,,,-99.99,pyweather 0.1,2013-03-14 20:40:00,
2013-03-14 13:48:00,52.3,48.0,0.00,North,0,0.0,0.0,85,0.00,,,-99.99,pyweather 0.1,2013-03-14 20:48:00,
2013-03-14 13:56:00,52.3,48.0,0.00,North,0,0.0,0.0,85,0.00,,,-99.99,pyweather 0.1,2013-03-14 20:56:00,
2013-03-14 14:04:00,52.3,48.0,0.00,North,0,0.0,0.0,85,0.00,,,-99.99,pyweather 0.1,2013-03-14 21:04:00,
2013-03-14 14:12:00,52.3,48.0,0.00,North,0,0.0,0.0,85,0.00,,,-99.99,pyweather 0.1,2013-03-14 21:12:00,
2013-03-14 14:20:00,52.5,48.5,0.00,North,0,0.0,0.0,86,0.00,,,-99.99,pyweather 0.1,2013-03-14 21:20:00,
2013-03-14 14:28:00,52.7,48.6,0.00,North,0,0.0,0.0,86,0.00,,,-99.99,pyweather 0.1,2013-03-14 21:28:00,
2013-03-14 14:36:00,53.1,49.3,0.00,North,0,0.0,0.0,87,0.00,,,-99.99,pyweather 0.1,2013-03-14 21:36:00,
2013-03-14 14:44:00,53.1,49.3,0.00,North,0,0.0,0.0,87,0.00,,,-99.99,pyweather 0.1,2013-03-14 21:44:00,
2013-03-14 14:52:00,52.9,48.8,0.00,North,0,0.0,0.0,86,0.00,,,-99.99,pyweather 0.1,2013-03-14 21:52:00,
2013-03-14 15:00:00,52.5,48.5,0.00,North,0,0.0,0.0,86,0.00,,,-99.99,pyweather 0.1,2013-03-14 22:00:00,
2013-03-14 15:08:00,52.3,48.0,0.00,North,0,0.0,0.0,85,0.00,,,-99.99,pyweather 0.1,2013-03-14 22:08:00,
2013-03-14 15:24:00,52.2,47.2,0.00,North,0,0.0,0.0,83,0.00,,,-99.99,pyweather 0.1,2013-03-14 22:24:00,
2013-03-14 15:32:00,52.0,46.7,0.00,North,0,0.0,0.0,82,0.00,,,-99.99,pyweather 0.1,2013-03-14 22:32:00,
2013-03-14 15:41:00,51.8,46.2,0.00,North,0,0.0,0.0,81,0.00,,,-99.99,pyweather 0.1,2013-03-14 22:41:00,
2013-03-14 15:49:00,51.8,45.8,0.00,North,0,0.0,0.0,80,0.00,,,-99.99,pyweather 0.1,2013-03-14 22:49:00,
2013-03-14 15:57:00,52.0,45.7,0.00,North,0,0.0,0.0,79,0.00,,,-99.99,pyweather 0.1,2013-03-14 22:57:00,
2013-03-14 16:05:00,52.2,45.5,0.00,North,0,0.0,0.0,78,0.00,,,-99.99,pyweather 0.1,2013-03-14 23:05:00,
2013-03-14 16:13:00,52.2,44.5,0.00,North,0,0.0,0.0,75,0.00,,,-99.99,pyweather 0.1,2013-03-14 23:13:00,
2013-03-14 16:29:00,52.5,44.1,0.00,North,0,0.0,0.0,73,0.00,,,-99.99,pyweather 0.1,2013-03-14 23:29:00,
2013-03-14 16:37:00,52.7,43.9,0.00,North,0,0.0,0.0,72,0.00,,,-99.99,pyweather 0.1,2013-03-14 23:37:00,
2013-03-14 16:45:00,52.5,42.7,0.00,North,0,0.0,0.0,69,0.00,,,-99.99,pyweather 0.1,2013-03-14 23:45:00,
2013-03-14 16:53:00,52.7,42.5,0.00,North,0,0.0,0.0,68,0.00,,,-99.99,pyweather 0.1,2013-03-14 23:53:00,
2013-03-14 17:09:00,53.1,43.2,0.00,North,0,0.0,0.0,69,0.00,,,-99.99,pyweather 0.1,2013-03-15 00:09:00,
2013-03-14 17:17:00,52.9,42.2,0.00,North,0,0.0,0.0,67,0.00,,,-99.99,pyweather 0.1,2013-03-15 00:17:00,
2013-03-14 17:25:00,52.7,41.7,0.00,North,0,0.0,0.0,66,0.00,,,-99.99,pyweather 0.1,2013-03-15 00:25:00,
2013-03-14 17:33:00,52.3,40.9,0.00,North,0,0.0,0.0,65,0.00,,,-99.99,pyweather 0.1,2013-03-15 00:33:00,
2013-03-14 17:49:00,51.6,40.2,0.00,North,0,0.0,0.0,65,0.00,,,-99.99,pyweather 0.1,2013-03-15 00:49:00,
2013-03-14 17:57:00,51.6,40.7,0.00,North,0,0.0,0.0,66,0.00,,,-99.99,pyweather 0.1,2013-03-15 00:57:00,
2013-03-14 18:05:00,51.4,41.2,0.00,North,0,0.0,0.0,68,0.00,,,-99.99,pyweather 0.1,2013-03-15 01:05:00,
2013-03-14 18:13:00,51.4,41.2,0.00,North,0,0.0,0.0,68,0.00,,,-99.99,pyweather 0.1,2013-03-15 01:13:00,
2013-03-14 18:21:00,51.4,40.9,0.00,North,0,0.0,0.0,67,0.00,,,-99.99,pyweather 0.1,2013-03-15 01:21:00,
2013-03-14 18:29:00,51.4,40.9,0.00,North,0,0.0,0.0,67,0.00,,,-99.99,pyweather 0.1,2013-03-15 01:29:00,
2013-03-14 18:37:00,51.3,40.7,0.00,North,0,0.0,0.0,67,0.00,,,-99.99,pyweather 0.1,2013-03-15 01:37:00,
2013-03-14 18:45:00,51.1,40.9,0.00,North,0,0.0,0.0,68,0.00,,,-99.99,pyweather 0.1,2013-03-15 01:45:00,
2013-03-14 18:53:00,50.9,41.1,0.00,North,0,0.0,0.0,69,0.00,,,-99.99,pyweather 0.1,2013-03-15 01:53:00,
2013-03-14 19:01:00,50.5,41.5,0.00,North,0,0.0,0.0,71,0.00,,,-99.99,pyweather 0.1,2013-03-15 02:01:00,
2013-03-14 19:09:00,50.2,41.5,0.00,North,0,0.0,0.0,72,0.00,,,-99.99,pyweather 0.1,2013-03-15 02:09:00,
2013-03-14 19:17:00,50.0,42.0,0.00,North,0,0.0,0.0,74,0.00,,,-99.99,pyweather 0.1,2013-03-15 02:17:00,
2013-03-14 19:25:00,49.8,42.2,0.00,North,0,0.0,0.0,75,0.00,,,-99.99,pyweather 0.1,2013-03-15 02:25:00,
2013-03-14 19:33:00,49.8,42.2,0.00,North,0,0.0,0.0,75,0.00,,,-99.99,pyweather 0.1,2013-03-15 02:33:00,
2013-03-14 19:41:00,49.6,42.4,0.00,North,0,0.0,0.0,76,0.00,,,-99.99,pyweather 0.1,2013-03-15 02:41:00,
2013-03-14 19:49:00,49.6,42.4,0.00,North,0,0.0,0.0,76,0.00,,,-99.99,pyweather 0.1,2013-03-15 02:49:00,
2013-03-14 19:57:00,49.6,42.7,0.00,North,0,0.0,0.0,77,0.00,,,-99.99,pyweather 0.1,2013-03-15 02:57:00,
2013-03-14 20:05:00,49.8,42.6,0.00,North,0,0.0,0.0,76,0.00,,,-99.99,pyweather 0.1,2013-03-15 03:05:00,
2013-03-14 20:13:00,49.8,42.6,0.00,North,0,0.0,0.0,76,0.00,,,-99.99,pyweather 0.1,2013-03-15 03:13:00,
2013-03-14 20:21:00,49.8,42.6,0.00,North,0,0.0,0.0,76,0.00,,,-99.99,pyweather 0.1,2013-03-15 03:21:00,
2013-03-14 20:29:00,49.8,42.6,0.00,North,0,0.0,0.0,76,0.00,,,-99.99,pyweather 0.1,2013-03-15 03:29:00,
2013-03-14 20:37:00,49.8,42.6,0.00,North,0,0.0,0.0,76,0.00,,,-99.99,pyweather 0.1,2013-03-15 03:37:00,
2013-03-14 20:45:00,49.8,42.6,0.00,North,0,0.0,0.0,76,0.00,,,-99.99,pyweather 0.1,2013-03-15 03:45:00,
2013-03-14 20:53:00,49.8,42.6,0.00,North,0,0.0,0.0,76,0.00,,,-99.99,pyweather 0.1,2013-03-15 03:53:00,
2013-03-14 21:01:00,49.8,42.6,0.00,North,0,0.0,0.0,76,0.00,,,-99.99,pyweather 0.1,2013-03-15 04:01:00,
2013-03-14 21:09:00,49.6,42.7,0.00,North,0,0.0,0.0,77,0.00,,,-99.99,pyweather 0.1,2013-03-15 04:09:00,
2013-03-14 21:17:00,49.6,42.7,0.00,North,0,0.0,0.0,77,0.00,,,-99.99,pyweather 0.1,2013-03-15 04:17:00,
2013-03-14 21:25:00,49.6,43.1,0.00,North,0,0.0,0.0,78,0.00,,,-99.99,pyweather 0.1,2013-03-15 04:25:00,
2013-03-14 21:33:00,49.5,43.2,0.00,North,0,0.0,0.0,79,0.00,,,-99.99,pyweather 0.1,2013-03-15 04:33:00,
2013-03-14 21:41:00,49.3,43.4,0.00,North,0,0.0,0.0,80,0.00,,,-99.99,pyweather 0.1,2013-03-15 04:41:00,
2013-03-14 21:49:00,49.1,43.5,0.00,North,0,0.0,0.0,81,0.00,,,-99.99,pyweather 0.1,2013-03-15 04:49:00,
2013-03-14 21:57:00,48.9,43.7,0.00,North,0,0.0,0.0,82,0.00,,,-99.99,pyweather 0.1,2013-03-15 04:57:00,
2013-03-14 22:05:00,48.7,44.1,0.00,North,0,0.0,0.0,84,0.00,,,-99.99,pyweather 0.1,2013-03-15 05:05:00,
2013-03-14 22:13:00,48.7,44.4,0.00,North,0,0.0,0.0,85,0.00,,,-99.99,pyweather 0.1,2013-03-15 05:13:00,
2013-03-14 22:21:00,48.7,44.4,0.00,North,0,0.0,0.0,85,0.00,,,-99.99,pyweather 0.1,2013-03-15 05:21:00,
2013-03-14 22:30:00,48.7,45.0,0.00,North,0,0.0,0.0,87,0.00,,,-99.99,pyweather 0.1,2013-03-15 05:30:00,
2013-03-14 22:38:00,48.6,44.9,0.00,North,0,0.0,0.0,87,0.00,,,-99.99,pyweather 0.1,2013-03-15 05:38:00,
2013-03-14 22:46:00,48.6,45.2,0.00,North,0,0.0,0.0,88,0.00,,,-99.99,pyweather 0.1,2013-03-15 05:46:00,
2013-03-14 22:54:00,48.6,45.5,0.00,North,0,0.0,0.0,89,0.00,,,-99.99,pyweather 0.1,2013-03-15 05:54:00,
2013-03-14 23:02:00,48.6,45.8,0.00,North,0,0.0,0.0,90,0.00,,,-99.99,pyweather 0.1,2013-03-15 06:02:00,
2013-03-14 23:10:00,48.6,45.8,0.00,North,0,0.0,0.0,90,0.00,,,-99.99,pyweather 0.1,2013-03-15 06:10:00,
2013-03-14 23:18:00,48.6,46.1,0.00,North,0,0.0,0.0,91,0.00,,,-99.99,pyweather 0.1,2013-03-15 06:18:00,
2013-03-14 23:26:00,48.6,46.1,0.00,North,0,0.0,0.0,91,0.00,,,-99.99,pyweather 0.1,2013-03-15 06:26:00,
2013-03-14 23:34:00,48.6,46.3,0.00,North,0,0.0,0.0,92,0.00,,,-99.99,pyweather 0.1,2013-03-15 06:34:00,
2013-03-14 23:42:00,48.6,46.3,0.00,North,0,0.0,0.0,92,0.00,,,-99.99,pyweather 0.1,2013-03-15 06:42:00,
2013-03-14 23:50:00,48.7,46.5,0.00,North,0,0.0,0.0,92,0.00,,,-99.99,pyweather 0.1,2013-03-15 06:50:00,
2013-03-14 23:58:00,48.7,46.5,0.00,North,0,0.0,0.0,92,0.00,,,-99.99,pyweather 0.1,2013-03-15 06:58:00,